Location: Malanoce
(44.2500°N, 7.4667°E)
Time: 22:17:33
(UTC+00:00)

Cosmos 2061 Rocket - Pass Details

Date: 17 November 2025
Orbit: 964 x 1012 km, 82.9° (Epoch: 11 December)

Event Time Altitude Azimuth Distance (km) Brightness Sun altitude
Rises 17:00:57 0° 194° (SSW) 3,696 7.5 -10.8°
Reaches altitude 10° 17:03:30 10° 196° (SSW) 2,744 6.8 -11.2°
Maximum altitude 17:09:46 69° 280° (W) 1,048 4.4 -12.3°
Drops below altitude 10° 17:16:00 10° 4° (N) 2,730 6.2 -13.4°
Sets 17:18:32 0° 7° (N) 3,676 6.8 -13.8°
